FW8396 Weather Reports


Display with metric or nautical units.
time (UTC)temp
F
wind
direction
speed
MPH
gust
MPH
rain 1hr
in
rain 24hr
in
rain mn
in
humidity
%
barometer
mb
20260504193030 82 109 3.0 10.0 0.00 0.00 0.00 56 1014.9
20260504191536 82 97 4.0 13.0 0.00 0.00 0.00 56 1015.0
20260504190030 83 162 3.0 10.0 0.00 0.00 0.00 55 1015.3
20260504184530 83 169 4.0 12.0 0.00 0.00 0.00 55 1015.4
20260504183030 82 103 3.0 14.0 0.00 0.00 0.00 56 1015.3
20260504181530 82 184 3.0 10.0 0.00 0.00 0.00 55 1015.7
20260504180030 81 192 4.0 15.0 0.00 0.00 0.00 56 1015.9
20260504174528 81 169 2.0 12.0 0.00 0.00 0.00 57 1016.1
20260504173034 80 153 3.0 13.0 0.00 0.00 0.00 58 1016.2
20260504171534 80 96 3.0 10.0 0.00 0.00 0.00 58 1016.4
20260504081529 63 0 0.0 0.0 0.00 0.00 0.00 74 1018.1
20260504044529 67 0 0.0 3.0 0.00 0.00 0.00 63 1020.3
20260504043028 67 136 0.0 3.0 0.00 0.00 0.00 62 1020.3
20260504041529 68 0 0.0 2.0 0.00 0.00 0.00 61 1020.5
20260504040054 68 145 0.0 3.0 0.00 0.00 0.00 60 1020.5
20260504034530 69 0 1.0 6.0 0.00 0.00 0.00 59 1020.7
20260504033028 69 188 1.0 9.0 0.00 0.00 0.00 58 1020.5
20260504031529 70 142 2.0 9.0 0.00 0.00 0.00 57 1020.4
20260504030030 70 127 2.0 8.0 0.00 0.00 0.00 57 1020.2
20260504024528 70 126 2.0 5.0 0.00 0.00 0.00 58 1020.3
20260504023029 71 173 1.0 6.0 0.00 0.00 0.00 57 1020.3
20260504021529 71 161 3.0 8.0 0.00 0.00 0.00 56 1020.0
20260504020028 71 192 3.0 10.0 0.00 0.00 0.00 55 1020.2
20260504014530 72 185 2.0 11.0 0.00 0.00 0.00 54 1020.2
20260504013029 73 124 2.0 8.0 0.00 0.00 0.00 52 1020.0
20260504011528 73 93 2.0 8.0 0.00 0.00 0.00 51 1019.9
20260504010031 74 44 1.0 8.0 0.00 0.00 0.00 50 1019.7
20260504004541 74 139 1.0 7.0 0.00 0.00 0.00 49 1019.7
20260504003027 75 125 3.0 10.0 0.00 0.00 0.00 48 1019.6
20260504001531 76 175 2.0 9.0 0.00 0.00 0.00 46 1019.4
20260504000031 77 145 2.0 11.0 0.00 0.00 0.00 45 1019.7
20260503234530 78 97 3.0 10.0 0.00 0.00 0.00 43 1019.6
20260503233027 79 173 4.0 13.0 0.00 0.00 0.00 41 1019.7
20260503231528 80 150 1.0 6.0 0.00 0.00 0.00 38 1019.6
20260503230030 80 136 2.0 5.0 0.00 0.00 0.00 38 1019.8
20260503224531 79 129 3.0 8.0 0.00 0.00 0.00 38 1019.9
20260503223030 80 68 3.0 10.0 0.00 0.00 0.00 38 1020.1
20260503221528 81 0 3.0 8.0 0.00 0.00 0.00 37 1020.3
20260503220028 81 121 1.0 8.0 0.00 0.00 0.00 37 1020.2
20260503214530 81 101 1.0 7.0 0.00 0.00 0.00 36 1020.2
20260503213029 81 173 2.0 9.0 0.00 0.00 0.00 37 1020.6
20260503211531 80 60 4.0 10.0 0.00 0.00 0.00 37 1021.0
20260503210028 82 46 3.0 9.0 0.00 0.00 0.00 36 1021.1
20260503204530 82 317 1.0 10.0 0.00 0.00 0.00 37 1021.1
20260503203027 81 180 1.0 8.0 0.00 0.00 0.00 37 1021.4
20260503201531 81 153 3.0 9.0 0.00 0.00 0.00 37 1021.6
20260503200029 81 0 1.0 11.0 0.00 0.00 0.00 36 1021.9
20260503194531 81 112 2.0 7.0 0.00 0.00 0.00 36 1022.1